,,PA_Meas_PMT16A,,PR_Meas_QMR101_102,,RH_Meas_QMH101,,SR_Meas_QMS101,,TA_Meas_QMH101,,GenWind,,GenWind,
time,status,PA,status,PR,status,RH,status,SR,status,TA,status,DirAvg,status,SpdAvg,
2013-11-19, 15:30:04,VALID,914.894,VALID,0,VALID,85.2679,VALID,49.5304,VALID,22.7411,VALID,23,VALID,0,
2013-11-19, 15:31:04,VALID,914.897,VALID,0,VALID,86.076,VALID,49.7453,VALID,22.7021,VALID,42,VALID,0,
2013-11-19, 15:32:04,VALID,914.92,VALID,0,VALID,86.4495,VALID,49.6378,VALID,22.6825,VALID,22,VALID,0,
2013-11-19, 18:17:04,VALID,916.691,VALID,0,VALID,96.8631,VALID,0.107441,VALID,18.9438,VALID,16,VALID,0,
2013-11-19, 18:18:04,VALID,916.693,VALID,0.2,VALID,96.886,VALID,0,VALID,18.9048,VALID,348,VALID,0,
2013-11-19, 18:19:04,VALID,916.72,VALID,0,VALID,96.9012,VALID,0,VALID,18.9048,VALID,320,VALID,0,
2013-11-19, 18:20:04,VALID,916.72,VALID,0,VALID,96.9012,VALID,0,VALID,18.9048,VALID,32,VALID,0,
2013-11-19, 18:21:04,VALID,916.772,VALID,0,VALID,96.9241,VALID,0,VALID,18.9243,VALID,22,VALID,0,
2013-11-19, 18:22:04,VALID,916.754,VALID,0,VALID,96.9317,VALID,0,VALID,18.9243,VALID,35,VALID,0,
2013-11-19, 18:23:04,VALID,916.78,VALID,0.2,VALID,96.947,VALID,0,VALID,18.9048,VALID,336,VALID,0,
2013-11-19, 18:24:04,VALID,916.739,VALID,0,VALID,96.9394,VALID,0,VALID,18.9062,VALID,19,VALID,0,
2013-11-19, 18:25:04,VALID,916.751,VALID,0.2,VALID,96.9394,VALID,0,VALID,18.8853,VALID,31,VALID,0,
2013-11-19, 18:26:04,VALID,916.805,VALID,0.2,VALID,96.9698,VALID,0,VALID,18.9243,VALID,37,VALID,0,
2013-11-19, 18:27:04,VALID,916.826,VALID,0,VALID,96.947,VALID,0,VALID,18.9243,VALID,17,VALID,0,
2013-11-19, 18:28:04,VALID,916.831,VALID,0.2,VALID,96.9698,VALID,0,VALID,18.9243,VALID,14,VALID,0,
2013-11-19, 18:29:04,VALID,916.906,VALID,0,VALID,96.9775,VALID,0,VALID,18.9633,VALID,127,VALID,0,
2013-11-19, 18:30:04,VALID,916.899,VALID,0,VALID,96.9775,VALID,0,VALID,18.9243,VALID,354,VALID,0,
2013-11-19, 18:31:04,VALID,916.956,VALID,0,VALID,96.9851,VALID,0,VALID,18.9034,VALID,346,VALID,0,
2013-11-19, 18:32:04,VALID,916.991,VALID,0.2,VALID,97.0003,VALID,0,VALID,18.9229,VALID,350,VALID,0,
2013-11-19, 18:33:04,VALID,916.995,VALID,0.2,VALID,97.008,VALID,0.107441,VALID,18.9034,VALID,120,VALID,0,
2013-11-19, 18:34:04,VALID,917.003,VALID,0.2,VALID,97.0156,VALID,0.107441,VALID,18.8644,VALID,118,VALID,0,
2013-11-19, 18:35:04,VALID,917.024,VALID,0,VALID,97.008,VALID,0,VALID,18.8644,VALID,123,VALID,0,
2013-11-19, 18:36:04,VALID,917.04,VALID,0.2,VALID,97.0385,VALID,0,VALID,18.9034,VALID,108,VALID,0,
2013-11-19, 18:37:04,VALID,917.057,VALID,0,VALID,97.0385,VALID,0,VALID,18.9034,VALID,108,VALID,0,
2013-11-19, 18:38:04,VALID,917.076,VALID,0,VALID,97.0232,VALID,0,VALID,18.8839,VALID,109,VALID,0,
2013-11-19, 18:39:04,VALID,917.071,VALID,0.2,VALID,97.0308,VALID,0,VALID,18.8644,VALID,110,VALID,0,
2013-11-19, 18:40:04,VALID,917.025,VALID,0,VALID,97.0385,VALID,0,VALID,18.8644,VALID,107,VALID,0,
2013-11-19, 18:41:04,VALID,917.038,VALID,0,VALID,97.0385,VALID,0,VALID,18.8644,VALID,65,VALID,0,
2013-11-19, 18:42:04,VALID,917.071,VALID,0.2,VALID,97.0308,VALID,0,VALID,18.8644,VALID,78,VALID,0,
2013-11-19, 18:43:04,VALID,917.075,VALID,0,VALID,97.0385,VALID,0,VALID,18.8449,VALID,264,VALID,0,
2013-11-19, 18:44:04,VALID,917.078,VALID,0,VALID,97.0842,VALID,0.107441,VALID,18.8254,VALID,264,VALID,0,
2013-11-19, 18:45:04,VALID,917.032,VALID,0,VALID,97.069,VALID,0.107441,VALID,18.8644,VALID,307,VALID,0,
2013-11-19, 18:46:04,VALID,917.023,VALID,0.2,VALID,97.0537,VALID,0,VALID,18.8449,VALID,289,VALID,0,
2013-11-19, 18:47:04,VALID,917.039,VALID,0,VALID,97.0613,VALID,0.107441,VALID,18.8644,VALID,144,VALID,0,
2013-11-19, 18:48:04,VALID,917.054,VALID,0.2,VALID,97.0994,VALID,0,VALID,18.8449,VALID,212,VALID,0,
2013-11-19, 18:49:04,VALID,917.023,VALID,0,VALID,97.0842,VALID,0,VALID,18.8644,VALID,72,VALID,0,
2013-11-19, 18:50:04,VALID,917.028,VALID,0,VALID,97.0918,VALID,0.107441,VALID,18.8839,VALID,283,VALID,0,
2013-11-19, 18:51:04,VALID,917.028,VALID,0.2,VALID,97.0918,VALID,0,VALID,18.8839,VALID,7,VALID,0,
2013-11-19, 18:52:04,VALID,917.06,VALID,0,VALID,97.1071,VALID,0,VALID,18.9034,VALID,5,VALID,0,
2013-11-19, 18:53:04,VALID,917.061,VALID,0,VALID,97.0994,VALID,0.107441,VALID,18.9229,VALID,19,VALID,0,
2013-11-19, 18:54:04,VALID,917.012,VALID,0,VALID,97.0994,VALID,0,VALID,18.9424,VALID,5,VALID,0,
2013-11-19, 18:55:04,VALID,917.057,VALID,0,VALID,97.1223,VALID,0,VALID,18.9229,VALID,28,VALID,0,
2013-11-19, 18:56:04,VALID,917.15,VALID,0.2,VALID,97.0994,VALID,0.107441,VALID,18.9619,VALID,53,VALID,0,
2013-11-19, 18:57:04,VALID,917.13,VALID,0,VALID,97.1071,VALID,0,VALID,18.9619,VALID,57,VALID,0,
2013-11-19, 18:58:04,VALID,917.132,VALID,0,VALID,97.1223,VALID,0.107441,VALID,18.9814,VALID,50,VALID,0,
2013-11-19, 18:59:04,VALID,917.152,VALID,0,VALID,97.1376,VALID,0.107441,VALID,19.0203,VALID,117,VALID,0,
2013-11-19, 19:00:04,VALID,917.168,VALID,0,VALID,97.1299,VALID,0.107441,VALID,18.9814,VALID,354,VALID,0,
2013-11-19, 19:01:04,VALID,917.167,VALID,0,VALID,97.1147,VALID,0,VALID,18.9814,VALID,16,VALID,0,
2013-11-19, 19:02:04,VALID,917.204,VALID,0,VALID,97.1147,VALID,0,VALID,18.9619,VALID,323,VALID,0,
2013-11-19, 19:03:04,VALID,917.23,VALID,0.2,VALID,97.1376,VALID,0,VALID,18.9828,VALID,323,VALID,0,
2013-11-19, 19:04:04,VALID,917.214,VALID,0,VALID,97.1376,VALID,0,VALID,18.9619,VALID,290,VALID,0,
2013-11-19, 19:05:04,VALID,917.268,VALID,0,VALID,97.1223,VALID,0,VALID,18.9619,VALID,13,VALID,0,
2013-11-19, 19:06:04,VALID,917.237,VALID,0,VALID,97.1299,VALID,0,VALID,18.9814,VALID,30,VALID,0,
2013-11-19, 19:07:04,VALID,917.231,VALID,0,VALID,97.1299,VALID,0,VALID,18.9619,VALID,6,VALID,0,
2013-11-19, 19:08:04,VALID,917.221,VALID,0,VALID,97.1376,VALID,0,VALID,18.9828,VALID,351,VALID,0,
2013-11-19, 19:09:04,VALID,917.245,VALID,0,VALID,97.1223,VALID,0,VALID,18.9828,VALID,29,VALID,0,
2013-11-19, 19:10:04,VALID,917.271,VALID,0,VALID,97.1299,VALID,0,VALID,18.9814,VALID,305,VALID,0,
2013-11-19, 19:11:04,VALID,917.275,VALID,0,VALID,97.1223,VALID,0,VALID,19.0023,VALID,307,VALID,0,
2013-11-19, 19:12:04,VALID,917.271,VALID,0,VALID,97.1299,VALID,0,VALID,19.0203,VALID,2,VALID,0,
2013-11-19, 19:13:04,VALID,917.275,VALID,0,VALID,97.1452,VALID,0,VALID,19.0203,VALID,319,VALID,0,
2013-11-19, 19:14:04,VALID,917.25,VALID,0,VALID,97.1604,VALID,0,VALID,19.0203,VALID,38,VALID,0,
2013-11-19, 19:15:04,VALID,917.237,VALID,0,VALID,97.1299,VALID,0,VALID,19.0608,VALID,28,VALID,0,
2013-11-19, 19:16:04,VALID,917.256,VALID,0,VALID,97.1452,VALID,0,VALID,19.0413,VALID,173,VALID,0,
2013-11-19, 19:17:04,VALID,917.25,VALID,0,VALID,97.1299,VALID,0,VALID,19.0218,VALID,349,VALID,0,
2013-11-19, 19:18:04,VALID,917.268,VALID,0,VALID,97.1604,VALID,0,VALID,18.9828,VALID,319,VALID,0,
2013-11-19, 19:19:04,VALID,917.226,VALID,0,VALID,97.1452,VALID,0,VALID,18.9814,VALID,88,VALID,0,
2013-11-19, 19:20:04,VALID,917.237,VALID,0,VALID,97.1604,VALID,0,VALID,19.0218,VALID,13,VALID,0,
2013-11-19, 19:21:04,VALID,917.261,VALID,0,VALID,97.1376,VALID,0,VALID,18.9814,VALID,13,VALID,0,
2013-11-19, 19:22:04,VALID,917.257,VALID,0,VALID,97.1528,VALID,0,VALID,19.0218,VALID,312,VALID,0,
2013-11-19, 19:23:04,VALID,917.261,VALID,0,VALID,97.1528,VALID,0,VALID,19.0218,VALID,342,VALID,0,
2013-11-19, 19:24:04,VALID,917.251,VALID,0,VALID,97.1376,VALID,0,VALID,19.0413,VALID,8,VALID,0,
2013-11-19, 19:25:04,VALID,917.291,VALID,0,VALID,97.1604,VALID,0,VALID,19.0398,VALID,21,VALID,0,
2013-11-19, 19:26:04,VALID,917.257,VALID,0,VALID,97.1528,VALID,0,VALID,19.0218,VALID,34,VALID,0,
2013-11-19, 19:27:04,VALID,917.266,VALID,0,VALID,97.1681,VALID,0,VALID,19.0203,VALID,15,VALID,0,
2013-11-19, 19:28:04,VALID,917.31,VALID,0,VALID,97.1604,VALID,0,VALID,19.0608,VALID,3,VALID,0,
2013-11-19, 19:29:04,VALID,917.269,VALID,0,VALID,97.1452,VALID,0,VALID,19.0398,VALID,23,VALID,0,
2013-11-19, 19:30:04,VALID,917.273,VALID,0,VALID,97.1604,VALID,0,VALID,19.0413,VALID,51,VALID,0,
2013-11-19, 19:31:04,VALID,917.238,VALID,0,VALID,97.1681,VALID,0,VALID,19.0413,VALID,355,VALID,0,
2013-11-19, 19:32:04,VALID,917.247,VALID,0,VALID,97.1757,VALID,0,VALID,19.0008,VALID,10,VALID,0,
2013-11-19, 19:33:04,VALID,917.208,VALID,0,VALID,97.1757,VALID,0,VALID,19.0008,VALID,56,VALID,0,
2013-11-19, 19:34:04,VALID,917.195,VALID,0,VALID,97.1604,VALID,0,VALID,19.0608,VALID,16,VALID,0,
2013-11-19, 19:35:04,VALID,917.161,VALID,0,VALID,97.1681,VALID,0,VALID,19.0008,VALID,38,VALID,0,
2013-11-19, 19:36:04,VALID,917.192,VALID,0,VALID,97.1528,VALID,0.107441,VALID,19.0413,VALID,344,VALID,0,
2013-11-19, 19:37:04,VALID,917.214,VALID,0,VALID,97.1681,VALID,0,VALID,19.0413,VALID,351,VALID,0,
2013-11-19, 19:38:04,VALID,917.221,VALID,0,VALID,97.1528,VALID,0,VALID,18.9619,VALID,185,VALID,0,
2013-11-19, 19:39:04,VALID,917.218,VALID,0,VALID,97.1757,VALID,0,VALID,18.9828,VALID,198,VALID,0,
2013-11-19, 19:40:04,VALID,917.222,VALID,0,VALID,97.1681,VALID,0,VALID,19.0023,VALID,58,VALID,0,
2013-11-19, 19:41:04,VALID,917.229,VALID,0,VALID,97.1757,VALID,0,VALID,19.0218,VALID,77,VALID,0,
2013-11-19, 19:42:04,VALID,917.292,VALID,0,VALID,97.1986,VALID,0,VALID,18.9814,VALID,339,VALID,0,
2013-11-19, 19:43:04,VALID,917.305,VALID,0,VALID,97.1757,VALID,0,VALID,19.0218,VALID,145,VALID,0,
2013-11-19, 19:44:04,VALID,917.315,VALID,0,VALID,97.1909,VALID,0.107441,VALID,19.0413,VALID,58,VALID,0,
2013-11-19, 19:45:04,VALID,917.374,VALID,0,VALID,97.1681,VALID,0,VALID,19.0608,VALID,39,VALID,0,
2013-11-19, 19:46:04,VALID,917.387,VALID,0,VALID,97.1986,VALID,0,VALID,19.0608,VALID,296,VALID,0,
2013-11-19, 19:47:04,VALID,917.384,VALID,0,VALID,97.1757,VALID,0,VALID,19.0413,VALID,320,VALID,0,
2013-11-19, 19:48:04,VALID,917.412,VALID,0,VALID,97.1986,VALID,0,VALID,19.0008,VALID,127,VALID,0,
2013-11-19, 19:49:04,VALID,917.45,VALID,0,VALID,97.1681,VALID,0,VALID,19.0608,VALID,23,VALID,0,
2013-11-19, 19:50:04,VALID,917.466,VALID,0,VALID,97.1833,VALID,0,VALID,19.0608,VALID,164,VALID,0,
2013-11-19, 19:51:04,VALID,917.456,VALID,0,VALID,97.1833,VALID,0,VALID,19.0398,VALID,42,VALID,0,
2013-11-19, 19:52:04,VALID,917.512,VALID,0,VALID,97.1833,VALID,0,VALID,19.0788,VALID,10,VALID,0,
2013-11-19, 19:53:04,VALID,917.505,VALID,0,VALID,97.1986,VALID,0,VALID,19.0788,VALID,34,VALID,0,
2013-11-19, 19:54:04,VALID,917.533,VALID,0,VALID,97.1986,VALID,0,VALID,19.0803,VALID,195,VALID,0,
2013-11-19, 19:55:04,VALID,917.593,VALID,0,VALID,97.1833,VALID,0,VALID,19.0203,VALID,311,VALID,0,
2013-11-19, 19:56:04,VALID,917.645,VALID,0,VALID,97.1909,VALID,0,VALID,19.0008,VALID,11,VALID,0,
2013-11-19, 19:57:04,VALID,917.676,VALID,0,VALID,97.1909,VALID,0,VALID,19.0203,VALID,92,VALID,0,
2013-11-19, 19:58:04,VALID,917.697,VALID,0,VALID,97.2138,VALID,0,VALID,19.0413,VALID,189,VALID,0,
2013-11-19, 19:59:04,VALID,917.727,VALID,0,VALID,97.1909,VALID,0,VALID,19.0218,VALID,16,VALID,0,
2013-11-19, 20:00:04,VALID,917.681,VALID,0,VALID,97.1833,VALID,0,VALID,19.0218,VALID,34,VALID,0,
2013-11-19, 20:01:04,VALID,917.799,VALID,0,VALID,97.1986,VALID,0,VALID,19.0218,VALID,339,VALID,0,
2013-11-19, 20:02:04,VALID,917.814,VALID,0,VALID,97.1909,VALID,0,VALID,19.0218,VALID,21,VALID,0,
2013-11-19, 20:03:04,VALID,917.857,VALID,0,VALID,97.1757,VALID,0,VALID,19.0593,VALID,7,VALID,0,
2013-11-19, 20:04:04,VALID,917.828,VALID,0,VALID,97.1833,VALID,0,VALID,19.0413,VALID,126,VALID,0,
2013-11-19, 20:05:04,VALID,917.841,VALID,0,VALID,97.1833,VALID,0,VALID,19.0413,VALID,353,VALID,0,
2013-11-19, 20:06:04,VALID,917.919,VALID,0,VALID,97.1757,VALID,0,VALID,19.0413,VALID,323,VALID,0,
2013-11-19, 20:07:04,VALID,917.94,VALID,0,VALID,97.2138,VALID,0,VALID,19.0218,VALID,8,VALID,0,
2013-11-19, 20:08:04,VALID,917.949,VALID,0,VALID,97.1833,VALID,0,VALID,19.0218,VALID,6,VALID,0,
2013-11-19, 20:09:04,VALID,917.997,VALID,0,VALID,97.1681,VALID,0,VALID,19.0608,VALID,342,VALID,0,
2013-11-19, 20:10:04,VALID,917.998,VALID,0,VALID,97.1909,VALID,0,VALID,19.0413,VALID,37,VALID,0,
2013-11-19, 20:11:04,VALID,918.04,VALID,0,VALID,97.1757,VALID,0,VALID,19.0413,VALID,54,VALID,0,
2013-11-19, 20:12:04,VALID,918.048,VALID,0,VALID,97.2062,VALID,0,VALID,19.0413,VALID,359,VALID,0,
2013-11-19, 20:13:04,VALID,918.068,VALID,0,VALID,97.1986,VALID,0,VALID,19.0608,VALID,327,VALID,0,
2013-11-19, 20:14:04,VALID,918.112,VALID,0,VALID,97.1909,VALID,0,VALID,19.0608,VALID,276,VALID,0,
2013-11-19, 20:15:04,VALID,918.105,VALID,0,VALID,97.1909,VALID,0,VALID,19.0398,VALID,210,VALID,0,
2013-11-19, 20:16:04,VALID,918.138,VALID,0,VALID,97.1909,VALID,0,VALID,19.0608,VALID,307,VALID,0,
2013-11-19, 20:17:04,VALID,918.152,VALID,0,VALID,97.1909,VALID,0,VALID,19.0218,VALID,350,VALID,0,
2013-11-19, 20:18:04,VALID,918.169,VALID,0,VALID,97.1833,VALID,0,VALID,19.0413,VALID,28,VALID,0,
2013-11-19, 20:19:04,VALID,918.139,VALID,0,VALID,97.1909,VALID,0,VALID,19.0608,VALID,20,VALID,0,
2013-11-19, 20:20:04,VALID,918.182,VALID,0,VALID,97.2062,VALID,0,VALID,19.0608,VALID,355,VALID,0,
2013-11-19, 20:21:04,VALID,918.21,VALID,0,VALID,97.1757,VALID,0,VALID,19.0803,VALID,288,VALID,0,
2013-11-19, 20:22:04,VALID,918.179,VALID,0,VALID,97.1909,VALID,0,VALID,19.0608,VALID,287,VALID,0,
2013-11-19, 20:23:04,VALID,918.21,VALID,0,VALID,97.1833,VALID,0,VALID,19.0608,VALID,16,VALID,0,
2013-11-19, 20:24:04,VALID,918.212,VALID,0,VALID,97.1833,VALID,0,VALID,19.0803,VALID,21,VALID,0,
2013-11-19, 20:25:04,VALID,918.225,VALID,0,VALID,97.1757,VALID,0,VALID,19.0803,VALID,318,VALID,0,
2013-11-19, 20:26:04,VALID,918.226,VALID,0,VALID,97.1833,VALID,0,VALID,19.0803,VALID,8,VALID,0,
2013-11-19, 20:27:04,VALID,918.268,VALID,0,VALID,97.1909,VALID,0,VALID,19.0608,VALID,3,VALID,0,
2013-11-19, 20:28:04,VALID,918.271,VALID,0,VALID,97.1986,VALID,0,VALID,19.0413,VALID,286,VALID,0,
2013-11-19, 20:29:04,VALID,918.263,VALID,0,VALID,97.1909,VALID,0,VALID,19.0413,VALID,66,VALID,0,
2013-11-19, 20:30:04,VALID,918.294,VALID,0,VALID,97.1604,VALID,0,VALID,19.0413,VALID,117,VALID,0,
2013-11-19, 20:31:04,VALID,918.347,VALID,0,VALID,97.1757,VALID,0,VALID,19.0413,VALID,327,VALID,0,
2013-11-19, 20:32:04,VALID,918.346,VALID,0,VALID,97.1757,VALID,0,VALID,19.0608,VALID,300,VALID,0,
2013-11-19, 20:33:04,VALID,918.378,VALID,0,VALID,97.1909,VALID,0,VALID,19.0398,VALID,7,VALID,0,
2013-11-19, 20:34:04,VALID,918.409,VALID,0.2,VALID,97.1833,VALID,0,VALID,19.0803,VALID,339,VALID,0,
2013-11-19, 20:35:04,VALID,918.452,VALID,0,VALID,97.1757,VALID,0,VALID,19.0608,VALID,221,VALID,0,
2013-11-19, 20:36:04,VALID,918.492,VALID,0,VALID,97.1833,VALID,0,VALID,19.0413,VALID,252,VALID,0,
2013-11-19, 20:37:04,VALID,918.538,VALID,0,VALID,97.1757,VALID,0,VALID,19.0413,VALID,320,VALID,0,
2013-11-19, 20:38:04,VALID,918.492,VALID,0,VALID,97.1681,VALID,0,VALID,19.0413,VALID,243,VALID,0,
2013-11-19, 20:39:04,VALID,918.534,VALID,0,VALID,97.1833,VALID,0,VALID,19.0803,VALID,327,VALID,0,
2013-11-19, 20:40:04,VALID,918.603,VALID,0,VALID,97.1604,VALID,0,VALID,19.0803,VALID,316,VALID,0,
2013-11-19, 20:41:04,VALID,918.605,VALID,0,VALID,97.1604,VALID,0,VALID,19.0998,VALID,309,VALID,0,
2013-11-19, 20:42:04,VALID,918.633,VALID,0,VALID,97.1681,VALID,0,VALID,19.1193,VALID,319,VALID,0,
2013-11-19, 20:43:04,VALID,918.644,VALID,0,VALID,97.1528,VALID,0,VALID,19.1178,VALID,24,VALID,0,
2013-11-19, 20:44:04,VALID,918.69,VALID,0,VALID,97.1757,VALID,0,VALID,19.1193,VALID,194,VALID,0,
2013-11-19, 20:45:04,VALID,918.702,VALID,0,VALID,97.1604,VALID,0,VALID,19.0998,VALID,230,VALID,0,
2013-11-19, 20:46:04,VALID,918.75,VALID,0,VALID,97.1681,VALID,0,VALID,19.0608,VALID,234,VALID,0,
2013-11-19, 20:47:04,VALID,918.732,VALID,0.2,VALID,97.1528,VALID,0,VALID,19.0608,VALID,236,VALID,0,
2013-11-19, 20:48:04,VALID,918.75,VALID,0,VALID,97.1757,VALID,0,VALID,19.0608,VALID,236,VALID,0,
2013-11-19, 20:49:04,VALID,918.758,VALID,0,VALID,97.1604,VALID,0,VALID,19.0803,VALID,236,VALID,0,
2013-11-19, 20:50:04,VALID,918.756,VALID,0,VALID,97.1604,VALID,0,VALID,19.0593,VALID,236,VALID,0,
2013-11-19, 20:51:04,VALID,918.773,VALID,0,VALID,97.1757,VALID,0,VALID,19.0998,VALID,236,VALID,0,
2013-11-19, 20:52:04,VALID,918.784,VALID,0,VALID,97.1681,VALID,0,VALID,19.0398,VALID,236,VALID,0,
2013-11-19, 20:53:04,VALID,918.784,VALID,0,VALID,97.1757,VALID,0,VALID,19.0413,VALID,236,VALID,0,
2013-11-19, 20:54:04,VALID,918.818,VALID,0,VALID,97.1757,VALID,0,VALID,19.0413,VALID,236,VALID,0,
2013-11-19, 20:55:04,VALID,918.762,VALID,0,VALID,97.1909,VALID,0,VALID,19.0608,VALID,202,VALID,0,
2013-11-19, 20:56:04,VALID,918.751,VALID,0.2,VALID,97.1909,VALID,0,VALID,19.0398,VALID,32,VALID,0,
2013-11-19, 20:57:04,VALID,918.751,VALID,0,VALID,97.1604,VALID,0,VALID,19.0998,VALID,204,VALID,0,
2013-11-19, 20:58:04,VALID,918.711,VALID,0,VALID,97.1681,VALID,0,VALID,19.0998,VALID,18,VALID,0,
2013-11-19, 20:59:04,VALID,918.73,VALID,0,VALID,97.1757,VALID,0,VALID,19.1388,VALID,76,VALID,0,
2013-11-19, 21:00:04,VALID,918.706,VALID,0,VALID,97.1681,VALID,0,VALID,19.1193,VALID,34,VALID,0,
2013-11-19, 21:01:04,VALID,918.696,VALID,0,VALID,97.1909,VALID,0,VALID,19.1583,VALID,14,VALID,0,
2013-11-19, 21:02:04,VALID,918.688,VALID,0,VALID,97.1833,VALID,0,VALID,19.1568,VALID,29,VALID,0,
2013-11-19, 21:03:04,VALID,918.698,VALID,0,VALID,97.1833,VALID,0,VALID,19.1973,VALID,21,VALID,0,
2013-11-19, 21:04:04,VALID,918.684,VALID,0,VALID,97.1681,VALID,0,VALID,19.2168,VALID,18,VALID,0,
2013-11-19, 21:05:04,VALID,918.687,VALID,0,VALID,97.1757,VALID,0,VALID,19.2153,VALID,12,VALID,0,
2013-11-19, 21:06:04,VALID,918.693,VALID,0,VALID,97.1757,VALID,0,VALID,19.1958,VALID,27,VALID,0,
2013-11-19, 21:07:04,VALID,918.696,VALID,0,VALID,97.1604,VALID,0,VALID,19.2168,VALID,16,VALID,0,
2013-11-19, 21:08:04,VALID,918.659,VALID,0,VALID,97.1833,VALID,0,VALID,19.2168,VALID,15,VALID,0,
2013-11-19, 21:09:04,VALID,918.678,VALID,0,VALID,97.1833,VALID,0,VALID,19.2363,VALID,1,VALID,0,
2013-11-19, 21:10:04,VALID,918.72,VALID,0,VALID,97.1833,VALID,0,VALID,19.2558,VALID,1,VALID,0,
2013-11-19, 21:11:04,VALID,918.698,VALID,0,VALID,97.1681,VALID,0,VALID,19.2363,VALID,8,VALID,0,
2013-11-19, 21:12:04,VALID,918.704,VALID,0,VALID,97.2062,VALID,0,VALID,19.2363,VALID,8,VALID,0,
2013-11-19, 21:13:04,VALID,918.725,VALID,0.2,VALID,97.1833,VALID,0,VALID,19.2168,VALID,253,VALID,0,
2013-11-19, 21:14:04,VALID,918.747,VALID,0,VALID,97.1986,VALID,0,VALID,19.1973,VALID,253,VALID,0,
2013-11-19, 21:15:04,VALID,918.767,VALID,0,VALID,97.1833,VALID,0,VALID,19.1958,VALID,2,VALID,0,
2013-11-19, 21:16:04,VALID,918.754,VALID,0,VALID,97.1757,VALID,0,VALID,19.1958,VALID,18,VALID,0,
2013-11-19, 21:17:04,VALID,918.734,VALID,0,VALID,97.1833,VALID,0,VALID,19.2168,VALID,48,VALID,0,
2013-11-19, 21:18:04,VALID,918.731,VALID,0,VALID,97.1604,VALID,0,VALID,19.2363,VALID,336,VALID,0,
2013-11-19, 21:19:04,VALID,918.71,VALID,0,VALID,97.1681,VALID,0,VALID,19.2558,VALID,9,VALID,0,
2013-11-19, 21:20:04,VALID,918.725,VALID,0,VALID,97.1681,VALID,0,VALID,19.2558,VALID,335,VALID,0,
2013-11-19, 21:21:04,VALID,918.694,VALID,0,VALID,97.1909,VALID,0,VALID,19.2348,VALID,356,VALID,0,
2013-11-19, 21:22:04,VALID,918.683,VALID,0,VALID,97.1909,VALID,0.107441,VALID,19.2558,VALID,7,VALID,0,
2013-11-19, 21:23:04,VALID,918.692,VALID,0,VALID,97.1909,VALID,0,VALID,19.2558,VALID,11,VALID,0,
2013-11-19, 21:24:04,VALID,918.697,VALID,0,VALID,97.1909,VALID,0,VALID,19.2753,VALID,350,VALID,0,
2013-11-19, 21:25:04,VALID,918.736,VALID,0,VALID,97.1681,VALID,0.107441,VALID,19.2948,VALID,331,VALID,0,
2013-11-19, 21:26:04,VALID,918.724,VALID,0,VALID,97.1986,VALID,0,VALID,19.3128,VALID,322,VALID,0,
2013-11-19, 21:27:04,VALID,918.747,VALID,0,VALID,97.1986,VALID,0,VALID,19.2933,VALID,312,VALID,0,
2013-11-19, 21:28:04,VALID,918.75,VALID,0.2,VALID,97.1757,VALID,0,VALID,19.3323,VALID,335,VALID,0,
2013-11-19, 21:29:04,VALID,918.769,VALID,0,VALID,97.1986,VALID,0,VALID,19.3128,VALID,335,VALID,0,
2013-11-19, 21:30:04,VALID,918.76,VALID,0,VALID,97.2062,VALID,0,VALID,19.2933,VALID,9,VALID,0,
2013-11-19, 21:31:04,VALID,918.733,VALID,0,VALID,97.1909,VALID,0,VALID,19.3128,VALID,27,VALID,0,
2013-11-19, 21:32:04,VALID,918.75,VALID,0,VALID,97.1986,VALID,0,VALID,19.3533,VALID,45,VALID,0,
2013-11-19, 21:33:04,VALID,918.718,VALID,0,VALID,97.1757,VALID,0.107441,VALID,19.3518,VALID,29,VALID,0,
2013-11-19, 21:34:04,VALID,918.735,VALID,0,VALID,97.1909,VALID,0.107441,VALID,19.3128,VALID,27,VALID,0,
2013-11-19, 21:35:04,VALID,918.775,VALID,0,VALID,97.1909,VALID,0,VALID,19.3128,VALID,9,VALID,0,
2013-11-19, 21:36:04,VALID,918.773,VALID,0,VALID,97.2062,VALID,0,VALID,19.2933,VALID,326,VALID,0,
2013-11-19, 21:37:04,VALID,918.788,VALID,0,VALID,97.1909,VALID,0,VALID,19.2948,VALID,9,VALID,0,
2013-11-19, 21:38:04,VALID,918.82,VALID,0,VALID,97.1986,VALID,0,VALID,19.2948,VALID,23,VALID,0,
2013-11-19, 21:39:04,VALID,918.819,VALID,0,VALID,97.1909,VALID,0.107441,VALID,19.3128,VALID,18,VALID,0,
2013-11-19, 21:40:04,VALID,918.851,VALID,0,VALID,97.1986,VALID,0,VALID,19.3128,VALID,16,VALID,0,
2013-11-19, 21:41:04,VALID,918.864,VALID,0,VALID,97.1909,VALID,0,VALID,19.2933,VALID,20,VALID,0,
2013-11-19, 21:42:04,VALID,918.88,VALID,0,VALID,97.2138,VALID,0,VALID,19.2933,VALID,346,VALID,0,
2013-11-19, 21:43:04,VALID,918.882,VALID,0,VALID,97.2062,VALID,0,VALID,19.2933,VALID,12,VALID,0,
2013-11-19, 21:44:04,VALID,918.887,VALID,0,VALID,97.1986,VALID,0.107441,VALID,19.3323,VALID,12,VALID,0,
2013-11-19, 21:45:04,VALID,918.896,VALID,0,VALID,97.1986,VALID,0,VALID,19.3518,VALID,6,VALID,0,
2013-11-19, 21:46:04,VALID,918.923,VALID,0,VALID,97.1909,VALID,0,VALID,19.3323,VALID,8,VALID,0,
2013-11-19, 21:47:04,VALID,918.888,VALID,0,VALID,97.1833,VALID,0,VALID,19.3323,VALID,8,VALID,0,
2013-11-19, 21:48:04,VALID,918.898,VALID,0,VALID,97.1986,VALID,0,VALID,19.3533,VALID,8,VALID,0,
2013-11-19, 21:49:04,VALID,918.901,VALID,0,VALID,97.1833,VALID,0,VALID,19.3323,VALID,15,VALID,0,
2013-11-19, 21:50:04,VALID,918.882,VALID,0,VALID,97.2062,VALID,0,VALID,19.3923,VALID,13,VALID,0,
2013-11-19, 21:51:04,VALID,918.887,VALID,0,VALID,97.2138,VALID,0,VALID,19.3713,VALID,11,VALID,0,
2013-11-19, 21:52:04,VALID,918.894,VALID,0,VALID,97.1757,VALID,0,VALID,19.3908,VALID,11,VALID,0,
2013-11-19, 21:53:04,VALID,918.895,VALID,0,VALID,97.1909,VALID,0,VALID,19.3713,VALID,11,VALID,0,
2013-11-19, 21:54:04,VALID,918.883,VALID,0,VALID,97.2062,VALID,0,VALID,19.3908,VALID,11,VALID,0,
2013-11-19, 21:55:04,VALID,918.859,VALID,0,VALID,97.1986,VALID,0,VALID,19.3908,VALID,11,VALID,0,
2013-11-19, 21:56:04,VALID,918.833,VALID,0.2,VALID,97.1833,VALID,0,VALID,19.4118,VALID,11,VALID,0,
2013-11-19, 21:57:04,VALID,918.813,VALID,0,VALID,97.1909,VALID,0,VALID,19.4118,VALID,357,VALID,0,
2013-11-19, 21:58:04,VALID,918.803,VALID,0,VALID,97.1833,VALID,0,VALID,19.4298,VALID,9,VALID,0,
2013-11-19, 21:59:04,VALID,918.794,VALID,0,VALID,97.1986,VALID,0,VALID,19.4118,VALID,308,VALID,0,
2013-11-19, 22:00:04,VALID,918.763,VALID,0,VALID,97.1909,VALID,0.107441,VALID,19.3728,VALID,29,VALID,0,
2013-11-19, 22:01:04,VALID,918.79,VALID,0,VALID,97.1986,VALID,0,VALID,19.3518,VALID,359,VALID,0,
2013-11-19, 22:02:04,VALID,918.766,VALID,0,VALID,97.2062,VALID,0,VALID,19.3713,VALID,350,VALID,0,
2013-11-19, 22:03:04,VALID,918.734,VALID,0,VALID,97.2062,VALID,0,VALID,19.3518,VALID,11,VALID,0,
2013-11-19, 22:04:04,VALID,918.716,VALID,0,VALID,97.2062,VALID,0,VALID,19.3923,VALID,347,VALID,0,
2013-11-19, 22:05:04,VALID,918.721,VALID,0,VALID,97.1986,VALID,0,VALID,19.3908,VALID,12,VALID,0,
2013-11-19, 22:06:04,VALID,918.684,VALID,0,VALID,97.2138,VALID,0,VALID,19.3518,VALID,6,VALID,0,
2013-11-19, 22:07:04,VALID,918.701,VALID,0,VALID,97.229,VALID,0,VALID,19.3338,VALID,326,VALID,0,
2013-11-19, 22:08:04,VALID,918.661,VALID,0,VALID,97.2214,VALID,0,VALID,19.3518,VALID,326,VALID,0,
2013-11-19, 22:09:04,VALID,918.669,VALID,0,VALID,97.2138,VALID,0,VALID,19.3518,VALID,18,VALID,0,
2013-11-19, 22:10:04,VALID,918.644,VALID,0,VALID,97.2138,VALID,0.107441,VALID,19.3518,VALID,352,VALID,0,
2013-11-19, 22:11:04,VALID,918.643,VALID,0,VALID,97.2062,VALID,0,VALID,19.3713,VALID,27,VALID,0,
2013-11-19, 22:12:04,VALID,918.618,VALID,0,VALID,97.2138,VALID,0,VALID,19.3713,VALID,27,VALID,0,
2013-11-19, 22:13:04,VALID,918.615,VALID,0,VALID,97.2214,VALID,0.107441,VALID,19.3908,VALID,27,VALID,0,